International Skating Union - Official Site

Essent ISU World Cup Heerenveen
November 16-18, 2012

Draw | Lap Times | Index | World Cup

Referee: Dan  IMMERFALL  (USA)
Starter: Åke  FALK  (SWE)
StartTime: EndTime: Air Temp: Ice Temp: Humidity:
Result Team Pursuit Men
Rankings as of Nov 18 2012 5:50PM
Rank: No.: Team: Nation: Time: Behind: Points:
Total 13
1 1 Netherlands (79) Jan Blokhuijsen (85) Sven Kramer (95) Koen Verweij (0)   NED NED 3:39.760.5 - 17.58 - (17.5)
1.0 - 30.88 - (13.3)
1.5 - 44.22 - (13.3)
2.0 - 57.44 - (13.2)
2.5 - 1:10.76 - (13.3)
3.0 - 1:24.30 - (13.5)
3.5 - 1:37.62 - (13.3)
4.0 - 1:50.93 - (13.3)
4.5 - 2:04.48 - (13.5)
5.0 - 2:17.97 - (13.4)
5.5 - 2:31.49 - (13.5)
6.0 - 2:45.19 - (13.6)
6.5 - 2:58.83 - (13.6)
7.0 - 3:12.49 - (13.6)
7.5 - 3:26.34 - (13.8)
8.0 - 3:39.76 - (13.4)
100
2 5 Russia (123) Yevgeny Lalenkov (127) Ivan Skobrev (129) Denis Yuskov (0)   RUS RUS 3:42.900.5 - 17.72 - (17.7)
1.0 - 31.28 - (13.5)
1.5 - 44.64 - (13.3)
2.0 - 57.90 - (13.2)
2.5 - 1:11.19 - (13.2)
3.0 - 1:24.83 - (13.6)
3.5 - 1:38.43 - (13.6)
4.0 - 1:52.09 - (13.6)
4.5 - 2:05.64 - (13.5)
5.0 - 2:19.39 - (13.7)
5.5 - 2:33.15 - (13.7)
6.0 - 2:47.19 - (14.0)
6.5 - 3:01.05 - (13.8)
7.0 - 3:14.84 - (13.7)
7.5 - 3:28.73 - (13.8)
8.0 - 3:42.90 - (14.1)
3.14 80
3 2 Korea (66) Hyung-Joon Joo (70) Byung-Wook Ko (73) Seung-Hoon Lee (0)   KOR KOR 3:43.570.5 - 17.88 - (17.8)
1.0 - 31.19 - (13.3)
1.5 - 44.46 - (13.2)
2.0 - 57.54 - (13.0)
2.5 - 1:10.85 - (13.3)
3.0 - 1:24.22 - (13.3)
3.5 - 1:37.81 - (13.5)
4.0 - 1:51.16 - (13.3)
4.5 - 2:04.76 - (13.6)
5.0 - 2:18.61 - (13.8)
5.5 - 2:32.77 - (14.1)
6.0 - 2:47.09 - (14.3)
6.5 - 3:01.61 - (14.5)
7.0 - 3:15.54 - (13.9)
7.5 - 3:29.48 - (13.9)
8.0 - 3:43.57 - (14.0)
3.81 70
4 7 Canada (9) Jordan Belchos (17) Lucas Makowsky (18) Denny Morrison (0)   CAN CAN 3:44.600.5 - 17.62 - (17.6)
1.0 - 30.92 - (13.3)
1.5 - 44.27 - (13.3)
2.0 - 57.83 - (13.5)
2.5 - 1:11.52 - (13.6)
3.0 - 1:25.15 - (13.6)
3.5 - 1:38.75 - (13.5)
4.0 - 1:52.38 - (13.6)
4.5 - 2:06.16 - (13.7)
5.0 - 2:19.82 - (13.6)
5.5 - 2:33.68 - (13.8)
6.0 - 2:47.63 - (13.9)
6.5 - 3:01.93 - (14.3)
7.0 - 3:16.15 - (14.2)
7.5 - 3:30.31 - (14.1)
8.0 - 3:44.60 - (14.2)
4.84 60
5 3 Germany (35) Alexej Baumgärtner (36) Patrick Beckert (40) Robert Lehmann (0)   GER GER 3:45.010.5 - 18.10 - (18.1)
1.0 - 31.67 - (13.5)
1.5 - 45.08 - (13.4)
2.0 - 58.42 - (13.3)
2.5 - 1:11.93 - (13.5)
3.0 - 1:25.79 - (13.8)
3.5 - 1:39.51 - (13.7)
4.0 - 1:53.37 - (13.8)
4.5 - 2:07.26 - (13.8)
5.0 - 2:21.39 - (14.1)
5.5 - 2:35.39 - (14.0)
6.0 - 2:49.42 - (14.0)
6.5 - 3:03.59 - (14.1)
7.0 - 3:17.40 - (13.8)
7.5 - 3:31.17 - (13.7)
8.0 - 3:45.01 - (13.8)
5.25 50
6 8 Norway (98) Håvard Bøkko (100) Fredrik van der Horst (103) Sverre Lunde Pedersen (0)   NOR NOR 3:45.540.5 - 17.79 - (17.7)
1.0 - 31.27 - (13.4)
1.5 - 44.80 - (13.5)
2.0 - 58.50 - (13.7)
2.5 - 1:12.42 - (13.9)
3.0 - 1:25.98 - (13.5)
3.5 - 1:39.53 - (13.5)
4.0 - 1:53.05 - (13.5)
4.5 - 2:06.79 - (13.7)
5.0 - 2:20.67 - (13.8)
5.5 - 2:34.91 - (14.2)
6.0 - 2:49.03 - (14.1)
6.5 - 3:03.30 - (14.2)
7.0 - 3:17.58 - (14.2)
7.5 - 3:31.49 - (13.9)
8.0 - 3:45.54 - (14.0)
5.78 45
7 6 Poland (109) Zbigniew Brodka (112) Konrad Niedzwiedzki (114) Jan Szymanski (0)   POL POL 3:46.330.5 - 18.12 - (18.1)
1.0 - 32.17 - (14.0)
1.5 - 46.31 - (14.1)
2.0 - 1:00.11 - (13.7)
2.5 - 1:13.97 - (13.8)
3.0 - 1:28.06 - (14.0)
3.5 - 1:41.66 - (13.5)
4.0 - 1:55.28 - (13.6)
4.5 - 2:09.12 - (13.8)
5.0 - 2:22.73 - (13.6)
5.5 - 2:36.60 - (13.8)
6.0 - 2:50.40 - (13.8)
6.5 - 3:04.46 - (14.0)
7.0 - 3:18.32 - (13.8)
7.5 - 3:32.26 - (13.9)
8.0 - 3:46.33 - (14.0)
6.57 40
8 9 Italy (45) Matteo Anesi (49) Mirko Giacomo Nenzi (50) Luca Stefani (0)   ITA ITA 3:48.290.5 - 17.49 - (17.4)
1.0 - 31.21 - (13.7)
1.5 - 44.74 - (13.5)
2.0 - 58.61 - (13.8)
2.5 - 1:12.41 - (13.7)
3.0 - 1:26.36 - (13.9)
3.5 - 1:40.24 - (13.8)
4.0 - 1:54.29 - (14.0)
4.5 - 2:08.45 - (14.1)
5.0 - 2:22.46 - (14.0)
5.5 - 2:36.56 - (14.0)
6.0 - 2:50.90 - (14.3)
6.5 - 3:05.21 - (14.3)
7.0 - 3:19.50 - (14.2)
7.5 - 3:33.91 - (14.4)
8.0 - 3:48.29 - (14.3)
8.53 35
9 11 France (32) Alexis Contin (33) Ewen Fernandez (34) Benjamin Macé (0)   FRA FRA 3:49.690.5 - 17.96 - (17.9)
1.0 - 31.48 - (13.5)
1.5 - 45.05 - (13.5)
2.0 - 58.72 - (13.6)
2.5 - 1:12.86 - (14.1)
3.0 - 1:27.02 - (14.1)
3.5 - 1:41.25 - (14.2)
4.0 - 1:55.27 - (14.0)
4.5 - 2:09.35 - (14.0)
5.0 - 2:23.46 - (14.1)
5.5 - 2:37.72 - (14.2)
6.0 - 2:51.96 - (14.2)
6.5 - 3:06.38 - (14.4)
7.0 - 3:20.73 - (14.3)
7.5 - 3:35.16 - (14.4)
8.0 - 3:49.69 - (14.5)
9.93 30
10 4 USA (135) Jonathan Garcia (136) Brian Hansen (138) Trevor Marsicano (0)   USA USA 3:51.960.5 - 17.56 - (17.5)
1.0 - 31.16 - (13.6)
1.5 - 45.28 - (14.1)
2.0 - 59.27 - (13.9)
2.5 - 1:13.37 - (14.1)
3.0 - 1:27.15 - (13.7)
3.5 - 1:41.00 - (13.8)
4.0 - 1:54.74 - (13.7)
4.5 - 2:08.96 - (14.2)
5.0 - 2:23.39 - (14.4)
5.5 - 2:37.86 - (14.4)
6.0 - 2:52.05 - (14.1)
6.5 - 3:06.40 - (14.3)
7.0 - 3:21.20 - (14.7)
7.5 - 3:36.54 - (15.3)
8.0 - 3:51.83 - (15.2)
12.20 25
11 10 Japan (54) Taro Kondo (55) Teppei Mori (59) Norimasa Zaike (0)   JPN JPN 3:54.040.5 - 18.15 - (18.1)
1.0 - 32.27 - (14.1)
1.5 - 46.50 - (14.2)
2.0 - 1:00.57 - (14.0)
2.5 - 1:14.84 - (14.2)
3.0 - 1:29.16 - (14.3)
3.5 - 1:43.75 - (14.5)
4.0 - 1:58.13 - (14.3)
4.5 - 2:12.63 - (14.5)
5.0 - 2:26.88 - (14.2)
5.5 - 2:41.40 - (14.5)
6.0 - 2:55.74 - (14.3)
6.5 - 3:10.19 - (14.4)
7.0 - 3:24.77 - (14.5)
7.5 - 3:39.57 - (14.7)
8.0 - 3:54.04 - (14.4)
14.28 21
12 13 China (20) Bailin Li (22) Longjiang Sun (24) Peng Xu (0)   CHN CHN 3:54.380.5 - 18.08 - (18.0)
1.0 - 31.97 - (13.8)
1.5 - 45.74 - (13.7)
2.0 - 59.61 - (13.8)
2.5 - 1:13.42 - (13.8)
3.0 - 1:27.46 - (14.0)
3.5 - 1:41.56 - (14.1)
4.0 - 1:56.05 - (14.4)
4.5 - 2:10.60 - (14.5)
5.0 - 2:25.40 - (14.8)
5.5 - 2:40.00 - (14.5)
6.0 - 2:54.66 - (14.6)
6.5 - 3:09.58 - (14.9)
7.0 - 3:24.83 - (15.2)
7.5 - 3:39.57 - (14.7)
8.0 - 3:54.38 - (14.8)
14.62 18
13 14 Belgium (3) Wannes van Preat (4) Ferre Spruyt (5) Bart Swings (0)   BEL BEL 3:57.020.5 - 18.32 - (18.3)
1.0 - 32.15 - (13.8)
1.5 - 46.16 - (14.0)
2.0 - 1:00.16 - (14.0)
2.5 - 1:14.25 - (14.0)
3.0 - 1:28.47 - (14.2)
3.5 - 1:42.91 - (14.4)
4.0 - 1:57.21 - (14.2)
4.5 - 2:11.88 - (14.6)
5.0 - 2:26.85 - (14.9)
5.5 - 2:41.91 - (15.0)
6.0 - 2:56.78 - (14.8)
6.5 - 3:11.69 - (14.9)
7.0 - 3:26.68 - (14.9)
7.5 - 3:41.86 - (15.1)
8.0 - 3:57.02 - (15.1)
17.26 16